Location: Blue Pit
(43.1414°N, 93.2208°W)
Time: 01:58:34
(UTC+00:00)

Meteor 2-17 Rocket - Pass Details

Date: 18 November 2025
Orbit: 936 x 955 km, 82.5° (Epoch: 08 December)

Event Time Altitude Azimuth Distance (km) Brightness Sun altitude
Rises 12:01:36 0° 199° (SSW) 3,585 7.4 -12.5°
Reaches altitude 10° 12:04:07 10° 204° (SSW) 2,648 6.7 -12.0°
Maximum altitude 12:10:03 56° 282° (WNW) 1,112 4.5 -11.0°
Drops below altitude 10° 12:16:04 10° 0° (N) 2,678 6.6 -9.9°
Sets 12:18:38 0° 5° (N) 3,630 7.4 -9.5°
